Oelwein, IA

1:15 PM CST on December 07, 2019 (GMT -0600)
Oelwein Municipal

Weather History for KOLZ - July, 2019

Change the Weather History Date:

Sunday, July 21, 2019

  Actual Average Record
Temperature  
Mean Temperature 71 °F -  
Max Temperature 78 °F 82 °F 95 °F (1983)
Min Temperature 64 °F 62 °F 46 °F (1970)
Cooling Degree Days 6    
Growing Degree Days 21 (Base 50)    
Moisture  
Dew Point 65 °F    
Average Humidity 84    
Maximum Humidity 100    
Minimum Humidity 54    
Precipitation  
Precipitation 0.00 in - - ()
Sea Level Pressure  
Sea Level Pressure 30.02 in    
Wind  
Wind Speed 9 mph ()    
Max Wind Speed 16 mph    
Max Gust Speed 24 mph    
Visibility 10.0 miles    
Events      
Averages and records for this station are not official NWS values.
T = Trace of Precipitation, MM = Missing Value Source: Averaged Metar Reports

Daily Weather History Graph

Daily Weather History Graph

Search for Another Location

Airport or City:

Astronomy

Jul. 21, 2019 Rise Set
Actual Time 5:48 AM CDT 8:39 PM CDT
Civil Twilight 5:15 AM CDT 9:12 PM CDT
Nautical Twilight 4:33 AM CDT 9:54 PM CDT
Astronomical Twilight 3:44 AM CDT 10:43 PM CDT
Moon 11:28 PM CDT (7/21) 10:14 AM CDT (7/21)
Length of Visible Light 15h 57m
Length of Day
14h 50m
Waning Gibbous, 80% of the Moon is Illuminated
Jul 21
Waning Gibbous
Jul 24
Last Quarter
Jul 31
New
Aug 7
First Quarter
Aug 15
Full

Hourly Weather History & Observations

Time (CDT) Temp. Dew Point Humidity Pressure Visibility Wind Dir Wind Speed Gust Speed Precip Events Conditions
12:15 AM 68.0 °F 68.0 °F 100% 29.94 in 10.0 mi North 11.5 mph - N/A   Mostly Cloudy
12:35 AM 68.0 °F 68.0 °F 100% 29.93 in 10.0 mi North 12.7 mph - N/A   Overcast
12:55 AM 66.2 °F 66.2 °F 100% 29.93 in 10.0 mi NNE 12.7 mph - N/A   Scattered Clouds
1:15 AM 66.2 °F 66.2 °F 100% 29.93 in 10.0 mi NNE 11.5 mph 17.3 mph N/A   Clear
1:35 AM 66.2 °F 66.2 °F 100% 29.95 in 10.0 mi NNE 9.2 mph - N/A   Mostly Cloudy
1:55 AM 66.2 °F 66.2 °F 100% 29.95 in 10.0 mi NE 8.1 mph - N/A   Overcast
2:15 AM 66.2 °F 66.2 °F 100% 29.97 in 10.0 mi NNE 8.1 mph - N/A   Overcast
2:35 AM 66.2 °F 66.2 °F 100% 29.97 in 10.0 mi NE 5.8 mph - N/A   Overcast
2:55 AM 66.2 °F 66.2 °F 100% 29.97 in 10.0 mi NNE 8.1 mph - N/A   Overcast
3:15 AM 66.2 °F 66.2 °F 100% 29.97 in 10.0 mi NE 6.9 mph - N/A   Overcast
3:35 AM 66.2 °F 66.2 °F 100% 29.97 in 10.0 mi NNE 5.8 mph - N/A   Overcast
3:55 AM 66.2 °F 66.2 °F 100% 29.99 in 10.0 mi North 6.9 mph - N/A   Overcast
4:15 AM 66.2 °F 66.2 °F 100% 29.98 in 10.0 mi North 5.8 mph - N/A   Overcast
4:35 AM 66.2 °F 66.2 °F 100% 29.98 in 10.0 mi NE 4.6 mph - N/A   Mostly Cloudy
4:55 AM 66.2 °F 66.2 °F 100% 29.98 in 10.0 mi North 4.6 mph - N/A   Mostly Cloudy
5:15 AM - - N/A% 29.97 in 10.0 mi NNE 6.9 mph - N/A   Partly Cloudy
5:35 AM 64.4 °F 64.4 °F 100% 29.97 in 10.0 mi NNE 5.8 mph - N/A   Mostly Cloudy
5:55 AM 66.2 °F 66.2 °F 100% 29.98 in 10.0 mi NNE 6.9 mph - N/A   Overcast
6:15 AM 64.4 °F 64.4 °F 100% 29.99 in 10.0 mi NNE 5.8 mph - N/A   Mostly Cloudy
6:35 AM 64.4 °F 64.4 °F 100% 30.00 in 10.0 mi NE 5.8 mph - N/A   Partly Cloudy
6:55 AM 66.2 °F 66.2 °F 100% 30.00 in 10.0 mi NE 4.6 mph - N/A   Clear
7:15 AM 66.2 °F 66.2 °F 100% 30.01 in 10.0 mi NE 5.8 mph - N/A   Mostly Cloudy
7:35 AM 66.2 °F 66.2 °F 100% 30.02 in 10.0 mi ENE 9.2 mph - N/A   Overcast
7:55 AM 68.0 °F 68.0 °F 100% 30.02 in 10.0 mi NE 6.9 mph - N/A   Mostly Cloudy
8:15 AM 69.8 °F 68.0 °F 94% 30.02 in 10.0 mi NE 9.2 mph - N/A   Partly Cloudy
8:35 AM 69.8 °F 66.2 °F 88% 30.03 in 10.0 mi ENE 9.2 mph 15.0 mph N/A   Clear
8:55 AM 69.8 °F 66.2 °F 88% 30.03 in 10.0 mi ENE 9.2 mph - N/A   Clear
9:15 AM 69.8 °F 66.2 °F 88% 30.04 in 10.0 mi NE 9.2 mph - N/A   Clear
9:35 AM 71.6 °F 68.0 °F 88% 30.04 in 10.0 mi NE 8.1 mph - N/A   Clear
9:55 AM 73.4 °F 68.0 °F 83% 30.04 in 10.0 mi NE 9.2 mph - N/A   Clear
10:15 AM 73.4 °F 66.2 °F 78% 30.04 in 10.0 mi NNE 11.5 mph - N/A   Clear
10:35 AM 73.4 °F 66.2 °F 78% 30.04 in 10.0 mi NE 11.5 mph - N/A   Clear
10:55 AM 73.4 °F 66.2 °F 78% 30.04 in 10.0 mi NE 11.5 mph - N/A   Clear
11:15 AM 73.4 °F 66.2 °F 78% 30.04 in 10.0 mi NE 10.4 mph - N/A   Clear
11:35 AM 75.2 °F 66.2 °F 73% 30.04 in 10.0 mi NE 12.7 mph - N/A   Clear
11:55 AM 75.2 °F 66.2 °F 73% 30.05 in 10.0 mi NE 9.2 mph - N/A   Clear
12:15 PM 75.2 °F 64.4 °F 69% 30.04 in 10.0 mi NE 10.4 mph - N/A   Clear
12:35 PM 75.2 °F 64.4 °F 69% 30.03 in 10.0 mi NE 11.5 mph - N/A   Clear
12:55 PM 75.2 °F 64.4 °F 69% 30.04 in 10.0 mi NE 10.4 mph - N/A   Clear
1:15 PM 77.0 °F 64.4 °F 65% 30.04 in 10.0 mi NNE 13.8 mph - N/A   Clear
1:35 PM 77.0 °F 64.4 °F 65% 30.04 in 10.0 mi NE 12.7 mph - N/A   Clear
1:55 PM 77.0 °F 64.4 °F 65% 30.04 in 10.0 mi NNE 13.8 mph - N/A   Clear
2:15 PM 78.8 °F 62.6 °F 57% 30.03 in 10.0 mi NNE 16.1 mph - N/A   Clear
2:55 PM 78.8 °F 64.4 °F 61% 30.03 in 10.0 mi NNE 16.1 mph - N/A   Clear
3:15 PM 78.8 °F 64.4 °F 61% 30.02 in 10.0 mi NNE 16.1 mph - N/A   Clear
3:35 PM 78.8 °F 60.8 °F 54% 30.03 in 10.0 mi North 16.1 mph 24.2 mph N/A   Clear
3:55 PM 77.0 °F 62.6 °F 61% 30.03 in 10.0 mi NNE 15.0 mph - N/A   Clear
4:15 PM 77.0 °F 62.6 °F 61% 30.03 in 10.0 mi NNE 16.1 mph - N/A   Clear
4:35 PM 77.0 °F 64.4 °F 65% 30.04 in 10.0 mi NNE 13.8 mph - N/A   Clear
4:55 PM 77.0 °F 62.6 °F 61% 30.04 in 10.0 mi NNE 12.7 mph 20.7 mph N/A   Clear
5:15 PM 75.2 °F 64.4 °F 69% 30.04 in 10.0 mi NNE 10.4 mph - N/A   Clear
5:35 PM 75.2 °F 64.4 °F 69% 30.04 in 10.0 mi North 8.1 mph - N/A   Clear
5:55 PM 75.2 °F 64.4 °F 69% 30.04 in 10.0 mi North 12.7 mph - N/A   Partly Cloudy
6:15 PM 75.2 °F 64.4 °F 69% 30.05 in 10.0 mi North 11.5 mph - N/A   Partly Cloudy
6:35 PM 75.2 °F 66.2 °F 73% 30.06 in 10.0 mi North 10.4 mph - N/A   Scattered Clouds
6:55 PM 73.4 °F 62.6 °F 69% 30.06 in 10.0 mi North 10.4 mph - N/A   Mostly Cloudy
7:15 PM 73.4 °F 62.6 °F 69% 30.07 in 10.0 mi North 9.2 mph - N/A   Mostly Cloudy
7:35 PM 73.4 °F 62.6 °F 69% 30.07 in 10.0 mi North 6.9 mph - N/A   Mostly Cloudy
7:55 PM 71.6 °F 62.6 °F 73% 30.07 in 10.0 mi North 6.9 mph - N/A   Scattered Clouds
8:15 PM 71.6 °F 64.4 °F 78% 30.08 in 10.0 mi NNW 5.8 mph - N/A   Partly Cloudy
8:35 PM 69.8 °F 66.2 °F 88% 30.08 in 10.0 mi NNW 5.8 mph - N/A   Scattered Clouds
8:55 PM 69.8 °F 66.2 °F 88% 30.08 in 10.0 mi NNW 5.8 mph - N/A   Mostly Cloudy
9:15 PM 68.0 °F 66.2 °F 94% 30.08 in 10.0 mi NW 5.8 mph - N/A   Mostly Cloudy
9:35 PM 66.2 °F 66.2 °F 100% 30.08 in 10.0 mi NW 6.9 mph - N/A   Mostly Cloudy
9:55 PM 66.2 °F 66.2 °F 100% 30.08 in 10.0 mi NNW 5.8 mph - N/A   Overcast
10:15 PM 68.0 °F 64.4 °F 88% 30.08 in 10.0 mi NNW 5.8 mph - N/A   Mostly Cloudy
10:35 PM 68.0 °F 64.4 °F 88% 30.08 in 10.0 mi North 5.8 mph - N/A   Mostly Cloudy
10:55 PM 66.2 °F 64.4 °F 94% 30.08 in 10.0 mi North 4.6 mph - N/A   Mostly Cloudy
11:15 PM 66.2 °F 64.4 °F 94% 30.08 in 10.0 mi North 6.9 mph - N/A   Overcast
11:35 PM 66.2 °F 64.4 °F 94% 30.07 in 10.0 mi North 5.8 mph - N/A   Overcast
11:55 PM 66.2 °F 64.4 °F 94% 30.08 in 10.0 mi NNW 5.8 mph - N/A   Overcast